Tracking 20711 objects as of 30-May-2020
HD Live streaming from Space Station
objects crossing your sky now

FENGYUN 1C DEB

Track FENGYUN 1C DEB now!
10-day predictions


NORAD ID: 37895
Int'l Code: 1999-025EMU
Perigee: 848.8 km
Apogee: 1,335.2 km
Inclination: 99.2 °
Period: 106.9 minutes
Semi major axis: 7463 km
RCS: 0.003 m2 (small)
Launch date: May 10, 1999
Source: People's Republic of China (PRC)
Launch site: Taiyaun Space Center, China (TSC)

Note: This is SATELLITE DEBRIS
aabbcc
Your satellite tracking list
Your tracking list is empty




NASA's NSSDC Master Catalog

Two Line Element Set (TLE):
1 37895U 99025EMU 20134.78618171  .00000564  00000-0  72782-3 0  9990
2 37895  99.1750 134.3551 0325889 256.7607  99.6990 13.46574014511751
Source of the keplerian elements: AFSPC